Total_Precipitation_Accumulation
2.09 2.06 1.92 1.93 1.67 1.72 2.04 2.35 2.27 2.42 2.58 2.41 2.13 2.00 1.91 1.75 1.71 1.63 1.75 1.96 1.87 1.95 2.25 2.33 2.28 2.13 2.05 1.87 1.68 1.59 1.53 1.41 1.20 0.90 0.73 0.69 0.63 0.53 0.49 0.47 0.43 0.38 0.34
2.34 2.30 2.10 2.03 1.75 1.71 1.95 2.23 2.25 2.44 2.47 2.50 2.13 1.92 1.84 1.90 1.85 1.68 1.74 1.96 1.97 1.80 1.96 2.29 2.51 2.56 2.43 2.26 2.01 1.79 1.67 1.59 1.34 0.99 0.79 0.74 0.69 0.63 0.63 0.65 0.57 0.43 0.32
2.55 2.50 2.33 2.06 1.94 2.01 2.10 2.12 2.19 2.57 2.43 2.34 2.14 2.12 2.05 2.00 1.85 1.78 1.75 1.91 1.74 1.67 1.69 1.87 2.20 2.48 2.75 2.74 2.48 2.26 1.96 1.69 1.39 1.11 0.90 0.75 0.67 0.64 0.66 0.67 0.67 0.54 0.37
2.53 2.63 2.29 1.94 2.08 2.25 2.30 2.28 2.30 2.52 2.54 2.63 2.54 2.37 2.17 2.00 1.58 1.50 1.53 1.60 1.72 1.47 1.61 1.86 1.99 2.12 2.59 2.95 3.07 3.03 2.54 2.01 1.58 1.24 1.01 0.85 0.78 0.73 0.65 0.60 0.59 0.58 0.45
1.95 2.01 1.71 1.61 1.76 1.86 1.76 1.68 1.98 2.19 2.31 2.44 2.32 2.16 1.85 1.68 1.49 1.39 1.41 1.26 1.36 1.40 1.46 1.70 1.90 1.94 2.40 3.06 3.64 3.84 3.47 2.79 2.15 1.63 1.39 1.25 1.12 0.94 0.78 0.69 0.64 0.60 0.51
1.55 1.63 1.37 1.30 1.50 1.63 1.61 1.71 1.85 1.86 1.83 1.91 1.73 1.59 1.45 1.27 1.27 1.25 1.11 1.11 1.11 1.11 1.30 1.56 1.76 1.55 2.06 2.83 3.44 3.75 3.82 3.43 2.77 2.27 2.04 1.81 1.62 1.30 0.93 0.75 0.69 0.64 0.55
1.56 1.67 1.43 1.53 1.56 1.57 1.57 1.61 1.67 1.59 1.39 1.56 1.81 1.63 1.33 1.19 1.14 1.05 1.01 1.08 1.00 1.04 1.28 1.51 1.68 1.76 1.64 1.76 2.25 2.77 3.43 3.80 3.40 2.85 2.59 2.35 2.16 1.77 1.28 1.01 0.81 0.68 0.60
1.47 1.47 1.47 1.26 1.28 1.37 1.28 1.31 1.55 1.53 1.30 1.43 1.72 1.79 1.55 1.49 1.28 0.83 0.87 0.96 0.98 1.10 1.27 1.36 1.61 1.82 1.76 1.92 1.57 1.79 2.65 3.35 3.70 3.58 3.17 2.66 2.29 1.92 1.58 1.37 1.10 0.88 0.77
1.22 1.23 1.20 1.17 1.25 1.20 1.23 1.28 1.37 1.44 1.35 1.28 1.39 1.76 1.63 1.41 1.22 1.01 0.94 0.92 1.05 1.23 1.30 1.41 1.42 1.50 1.62 1.92 1.93 1.71 2.01 2.25 3.14 3.82 3.68 2.97 2.24 1.78 1.60 1.63 1.51 1.22 1.05
1.17 1.08 1.08 1.04 1.11 1.12 1.29 1.14 1.19 1.30 1.32 1.18 1.23 1.35 1.38 1.39 1.35 1.20 1.05 0.98 1.05 1.18 1.31 1.33 1.46 1.55 1.59 1.72 1.95 1.79 1.57 1.60 2.15 2.97 3.41 3.30 2.71 2.03 1.71 1.82 2.11 2.04 1.60
1.14 1.07 1.06 1.10 1.11 1.09 1.11 1.15 1.30 1.25 1.21 1.16 1.16 1.24 1.37 1.38 1.27 1.26 1.21 1.08 1.02 0.93 1.07 1.31 1.50 1.67 1.64 1.70 2.02 1.92 1.78 1.66 1.57 1.80 2.36 2.77 2.79 2.49 2.17 2.21 2.68 3.03 2.84
1.17 1.20 1.16 1.20 1.15 1.12 1.12 1.12 1.18 1.18 1.21 1.25 1.17 1.15 1.31 1.40 1.31 1.30 1.21 1.09 1.01 0.86 0.91 1.14 1.50 1.79 1.82 1.80 1.64 1.58 1.63 1.62 1.48 1.38 1.49 1.79 2.14 2.32 2.35 2.54 2.96 3.43 3.71
1.10 1.23 1.24 1.22 1.22 1.22 1.17 1.17 1.16 1.11 1.19 1.30 1.22 1.13 1.13 1.16 1.23 1.27 1.24 1.10 1.06 0.98 1.14 1.17 1.27 1.47 1.56 1.65 1.63 1.53 1.35 1.31 1.18 1.11 1.18 1.29 1.51 1.78 1.98 2.13 2.49 2.89 3.21
1.08 1.18 1.25 1.21 1.16 1.12 1.10 1.26 1.16 1.11 1.20 1.27 1.22 1.39 1.31 1.16 1.29 1.35 1.35 1.38 1.29 1.25 1.40 1.33 1.23 1.27 1.38 1.49 1.53 1.43 1.15 1.14 1.02 0.92 0.87 0.84 0.91 1.04 1.20 1.35 1.55 1.79 2.03
1.12 1.16 1.09 1.14 1.15 1.10 1.10 1.21 1.19 1.19 1.24 1.22 1.29 1.47 1.46 1.36 1.36 1.39 1.49 1.64 1.76 1.61 1.47 1.39 1.28 1.20 1.26 1.37 1.41 1.23 1.16 1.24 1.12 0.93 0.86 0.83 0.81 0.83 0.87 0.91 0.95 1.02 1.08
1.12 1.18 1.19 1.09 1.09 1.10 1.16 1.28 1.26 1.25 1.35 1.42 1.55 1.64 1.62 1.58 1.57 1.49 1.53 1.62 1.75 1.79 1.58 1.33 1.30 1.25 1.21 1.08 1.19 1.06 1.03 1.17 1.07 0.98 0.91 0.86 0.81 0.80 0.79 0.79 0.76 0.78 0.82
1.05 1.09 1.11 1.12 1.11 1.17 1.35 1.60 1.55 1.50 1.53 1.59 1.68 1.79 1.82 1.92 1.92 1.74 1.67 1.63 1.67 1.79 1.62 1.38 1.34 1.29 1.15 1.03 1.03 0.97 0.92 0.93 0.90 0.96 0.87 0.80 0.73 0.70 0.71 0.72 0.71 0.71 0.71
0.98 0.89 0.93 0.99 0.99 1.10 1.32 1.63 1.77 1.77 1.78 1.70 1.77 1.99 2.00 1.97 1.88 1.76 1.77 1.69 1.66 1.80 1.74 1.55 1.52 1.42 1.32 1.17 1.10 1.04 0.90 0.87 0.91 1.08 0.98 0.84 0.75 0.70 0.66 0.64 0.64 0.66 0.70
1.03 0.99 1.00 1.02 1.10 1.18 1.24 1.43 1.62 1.69 1.73 1.70 1.81 1.87 1.87 1.94 1.85 1.79 1.71 1.67 1.65 1.78 1.89 1.76 1.73 1.71 1.57 1.40 1.31 1.17 1.04 1.03 0.89 0.92 0.92 0.84 0.78 0.72 0.70 0.69 0.70 0.69 0.67
1.12 1.12 1.13 1.18 1.24 1.28 1.28 1.37 1.51 1.61 1.66 1.70 1.80 1.86 1.88 1.87 1.92 2.02 1.90 1.84 1.89 1.95 2.02 1.98 1.91 2.00 1.92 1.71 1.54 1.35 1.19 1.09 1.00 0.83 0.86 0.87 0.82 0.74 0.68 0.63 0.61 0.61 0.64
1.20 1.23 1.33 1.34 1.32 1.25 1.20 1.40 1.54 1.55 1.67 1.75 1.75 1.72 1.77 1.95 2.04 2.06 1.91 1.91 2.02 2.00 1.97 1.99 1.95 2.05 2.06 1.92 1.62 1.37 1.28 1.24 1.16 1.01 0.93 0.81 0.79 0.77 0.75 0.74 0.73 0.71 0.65
1.31 1.39 1.46 1.47 1.40 1.22 1.40 1.53 1.54 1.56 1.65 1.70 1.71 1.64 1.56 1.60 1.70 1.79 1.75 1.70 1.75 1.80 1.86 1.87 1.88 1.93 1.97 1.89 1.70 1.52 1.39 1.29 1.24 1.20 1.21 1.15 1.02 1.00 0.89 0.79 0.83 0.79 0.74
1.41 1.44 1.45 1.46 1.44 1.50 1.54 1.42 1.36 1.28 1.33 1.41 1.41 1.38 1.21 1.13 1.34 1.42 1.56 1.54 1.45 1.41 1.44 1.58 1.70 1.73 1.86 1.91 1.87 1.67 1.60 1.50 1.34 1.30 1.33 1.33 1.24 1.12 0.93 0.89 0.98 0.85 0.81
1.63 1.62 1.54 1.55 1.64 1.67 1.65 1.43 1.32 1.19 1.18 1.19 1.18 1.14 1.13 1.11 1.17 1.26 1.33 1.34 1.29 1.25 1.25 1.26 1.37 1.56 1.73 1.88 1.89 1.80 1.75 1.64 1.45 1.33 1.33 1.35 1.26 1.17 1.02 0.97 1.02 0.93 0.86
1.90 1.90 1.86 1.90 1.91 1.97 1.94 1.64 1.49 1.30 1.25 1.19 1.21 1.26 1.25 1.14 1.19 1.16 1.15 1.17 1.18 1.23 1.24 1.23 1.26 1.43 1.62 1.73 1.87 1.82 1.76 1.66 1.49 1.35 1.29 1.26 1.22 1.25 1.18 1.05 0.95 0.90 0.76
2.21 2.21 2.23 2.23 2.15 2.11 2.06 1.71 1.50 1.30 1.32 1.30 1.34 1.30 1.23 1.09 1.05 0.99 0.99 1.07 1.05 1.06 1.16 1.19 1.19 1.29 1.42 1.55 1.71 1.68 1.59 1.60 1.46 1.33 1.20 1.20 1.18 1.20 1.23 1.07 0.90 0.78 0.70